ONEWEB-0616, 55157

Orbit data source: Space-Track

ONEWEB-0616, 55157 is a payload satellite owned by One Web (NAA) (UK) in LEO that was launched on Tue, 10 Jan 2023 UTC via an FALCON 9 launch vehicle from the Air Force Eastern Test Range (AFETR). Payload-class satellites include a variety of spacecraft equipped with specific instruments for various scientific and technological missions. These include communications satellites like Starlink; space stations such as the ISS; scientific satellites like the Hubble; Earth observation satellites from companies like Planet Labs, Umbra, and HawkEye 360; GPS; miniature CubeSats for education and research; and military/defense satellites.

Loading next visibility...
Identifier
55157, 2023-004T
Orbit
LEO
Country
Flag of UKUK
Related business
Manufacturer
One Web
Mission
Operational Commercial Communications
Bus & Motor
ARROW, Unknown motor
Mass
148 kg wet, ~140 kg dry
Launch date (UTC)
2023-01-10 (3 years ago)
Launch vehicle
FALCON 9
Launch site
Air Force Eastern Test Range (AFETR)
Object type
Payload
Rocket body
Debris
Shape & HBR
Trap Box + 2 Pan, 6.7 m
Radar Cross Section
3.464 m², Large (>1 m²)

Expand to show TLE details & history
Last TLE update: 3 days ago

TLE from 3 days ago
0 ONEWEB-0616
1 55157U 23004T   26170.95267418  .00000040  00000-0  69661-4 0  9996
2 55157  87.9133   5.3173 0000940  85.3550 274.7689 13.17649303168065
Epoch: 2026-06-19T22:51Z
TLE epoch observation values (Epoch: 2026-06-19T22:51:51.049Z)
Latitude
0.00001°
Longitude
114.18033°
Altitude
1,196.551 km
Speed
7.256 km/s
True Right ascension
00h 21m 16s
True Declination
0° 00' 00"
Sunlit
Object was in daylight at epoch
Visualization orbit readout
Latitude
Unknown
Longitude
Unknown
Altitude
Unknown
Speed
Unknown
Apparent Right ascension
Unknown
Apparent Declination
Unknown
Sunlit
N/A
Visualization observer readout
Local Sidereal Time
00:27:43
Azimuth
Unknown
Elevation
Unknown
Doppler factor
Unknown
Orbital elements
Apogee altitude
1,191.532 km
Perigee altitude
1,190.109 km
Semi-major axis
7,568.958 km
Eccentricity
0.00009
Inclination
87.9133°
RAAN
5.3173°
Arg. of periapsis
85.355°
True anomaly
274.75817°
Mean anomaly
274.7689°
Eccentric anomaly
274.76353°
Mean motion
3.29601 °/min
Orbital period
109.22 mins
BSTAR
0.000069661
Loading maneuver chart data...
Computing Atmospheric mass density...
Loading historical data...
Loading historical data...
Loading historical data...
Loading historical data...
Loading historical data...
Loading historical data...
Loading historical data...

Documentation

Showing up to 5 results
|